Location: Lafig�re
(44.4503°N, 4.0357°E)
Time: 16:44:56
(UTC+00:00)

SWAS - Pass Details

Date: 24 September 2020
Orbit: 581 x 590 km, 69.9° (Epoch: 26 October)

Event Time Altitude Azimuth Distance (km) Brightness Sun altitude
Rises 18:34:16 0° 335° (NNW) 2,825 8.5 -11.0°
Reaches altitude 10° 18:36:33 10° 340° (NNW) 1,919 7.5 -11.4°
Maximum altitude 18:40:48 60° 60° (ENE) 674 4.5 -12.2°
Enters shadow 18:44:32 13° 140° (SE) 1,718 6.4 -12.8°
